Wetterdaten: aktuell Dienstag, 19.02.2019 04:36
Datum Zeit Temp. 2m Temp. 5cm Temp. -10cm Temp. 2m alt Feuchte A. Luftdruck Regen Wind Richtung Richtung Taupunkt Windchill Windben
19.02.2019 04:36 -4,1 C -4,8 C 1,7 C -5,0 C 82 % 1021,2 hPa 0,0 l/m 0,8 km/h (0 Bft) W-SW 247 -6,7 C -4,1 C 0,0 km/h (0 Bft)
19.02.2019 04:34 -4,1 C -4,8 C 1,7 C -4,9 C 82 % 1021,2 hPa 0,0 l/m 0,8 km/h (0 Bft) W-SW 247 -6,7 C -4,1 C 0,0 km/h (0 Bft)
19.02.2019 04:32 -4,2 C -4,8 C 1,7 C -4,9 C 82 % 1021,2 hPa 0,0 l/m 0,6 km/h (0 Bft) W-SW 247 -6,8 C -4,2 C 3,3 km/h (1 Bft)
19.02.2019 04:30 -4,2 C -4,8 C 1,7 C -4,9 C 82 % 1021,2 hPa 0,0 l/m 0,5 km/h (0 Bft) W-SW 247 -6,8 C -4,2 C 1,9 km/h (1 Bft)
19.02.2019 04:28 -4,1 C -4,5 C 1,7 C -4,9 C 82 % 1021,2 hPa 0,0 l/m 0,2 km/h (0 Bft) W-SW 247 -6,7 C -4,1 C 0,0 km/h (0 Bft)
19.02.2019 04:26 -4,1 C -3,5 C 1,7 C -4,9 C 82 % 1020,5 hPa 0,0 l/m 0,2 km/h (0 Bft) W-SW 247 -6,7 C -4,1 C 0,0 km/h (0 Bft)
19.02.2019 04:24 -4,1 C -5,2 C 1,7 C -4,9 C 82 % 1020,5 hPa 0,0 l/m 0,2 km/h (0 Bft) W-SW 247 -6,7 C -4,1 C 0,0 km/h (0 Bft)
19.02.2019 04:22 -4,1 C -5,0 C 1,7 C -4,9 C 82 % 1020,5 hPa 0,0 l/m 0,2 km/h (0 Bft) W-SW 247 -6,7 C -4,1 C 0,0 km/h (0 Bft)
19.02.2019 04:20 -4,1 C -5,0 C 1,7 C -4,9 C 82 % 1020,5 hPa 0,0 l/m 0,0 km/h (0 Bft) W-SW 247 -6,7 C -4,1 C 0,0 km/h (0 Bft)
19.02.2019 04:18 -4,0 C -5,0 C 1,7 C -4,9 C 82 % 1020,5 hPa 0,0 l/m 0,0 km/h (0 Bft) W-SW 247 -6,6 C -4,0 C 0,0 km/h (0 Bft)
19.02.2019 04:16 -4,0 C -4,8 C 1,7 C -4,9 C 82 % 1020,5 hPa 0,0 l/m 0,0 km/h (0 Bft) W-SW 247 -6,6 C -4,0 C 0,0 km/h (0 Bft)
19.02.2019 04:14 -4,0 C -4,6 C 1,7 C -4,9 C 82 % 1020,5 hPa 0,0 l/m 0,0 km/h (0 Bft) W-SW 247 -6,6 C -4,0 C 0,0 km/h (0 Bft)
19.02.2019 04:12 -3,8 C -4,9 C 1,7 C -4,9 C 82 % 1020,5 hPa 0,0 l/m 0,3 km/h (0 Bft) W-SW 247 -6,4 C -3,8 C 0,0 km/h (0 Bft)
19.02.2019 04:10 -3,8 C -5,2 C 1,7 C -4,8 C 83 % 1020,5 hPa 0,0 l/m 0,5 km/h (0 Bft) W-SW 247 -6,3 C -3,8 C 0,0 km/h (0 Bft)
19.02.2019 04:08 -3,8 C -5,0 C 1,7 C -4,8 C 83 % 1020,5 hPa 0,0 l/m 0,5 km/h (0 Bft) W-SW 247 -6,3 C -3,8 C 0,0 km/h (0 Bft)
19.02.2019 04:06 -3,8 C -4,9 C 1,7 C -4,8 C 82 % 1020,6 hPa 0,0 l/m 0,5 km/h (0 Bft) W-SW 247 -6,4 C -3,8 C 0,0 km/h (0 Bft)
19.02.2019 04:04 -3,8 C -4,9 C 1,7 C -4,9 C 82 % 1020,6 hPa 0,0 l/m 0,5 km/h (0 Bft) W-SW 247 -6,4 C -3,8 C 0,0 km/h (0 Bft)
19.02.2019 04:02 -3,8 C -4,9 C 1,7 C -4,9 C 82 % 1020,6 hPa 0,0 l/m 0,5 km/h (0 Bft) W-SW 247 -6,4 C -3,8 C 3,3 km/h (1 Bft)
19.02.2019 04:00 -3,8 C -4,9 C 1,7 C -4,8 C 82 % 1020,6 hPa 0,0 l/m 0,2 km/h (0 Bft) W-SW 247 -6,4 C -3,8 C 0,0 km/h (0 Bft)
19.02.2019 03:58 -3,8 C -4,9 C 1,7 C -4,8 C 82 % 1020,6 hPa 0,0 l/m 0,6 km/h (0 Bft) W-SW 247 -6,4 C -3,8 C 0,0 km/h (0 Bft)
19.02.2019 03:56 -3,7 C -4,8 C 1,7 C -4,8 C 82 % 1020,6 hPa 0,0 l/m 0,6 km/h (0 Bft) W-SW 247 -6,3 C -3,7 C 0,0 km/h (0 Bft)
19.02.2019 03:54 -3,7 C -4,9 C 1,7 C -4,8 C 82 % 1020,6 hPa 0,0 l/m 0,6 km/h (0 Bft) W-SW 247 -6,3 C -3,7 C 4,6 km/h (1 Bft)
19.02.2019 03:52 -3,7 C -4,9 C 1,7 C -4,7 C 82 % 1020,6 hPa 0,0 l/m 0,6 km/h (0 Bft) W-SW 247 -6,3 C -3,7 C 0,0 km/h (0 Bft)
19.02.2019 03:50 -3,7 C -4,6 C 1,7 C -4,7 C 82 % 1020,6 hPa 0,0 l/m 0,6 km/h (0 Bft) W-SW 247 -6,3 C -3,7 C 2,7 km/h (1 Bft)
19.02.2019 03:48 -3,7 C -5,0 C 1,7 C -4,7 C 82 % 1020,6 hPa 0,0 l/m 0,3 km/h (0 Bft) W-SW 247 -6,3 C -3,7 C 4,6 km/h (1 Bft)
19.02.2019 03:46 -3,8 C -5,0 C 1,7 C -4,7 C 82 % 1020,7 hPa 0,0 l/m 0,0 km/h (0 Bft) W-SW 247 -6,4 C -3,8 C 0,0 km/h (0 Bft)
19.02.2019 03:44 -3,8 C -4,6 C 1,7 C -4,7 C 82 % 1020,7 hPa 0,0 l/m 0,0 km/h (0 Bft) W-SW 247 -6,4 C -3,8 C 0,0 km/h (0 Bft)
19.02.2019 03:42 -3,7 C -4,6 C 1,7 C -4,7 C 82 % 1020,7 hPa 0,0 l/m 0,0 km/h (0 Bft) W-SW 247 -6,3 C -3,7 C 0,0 km/h (0 Bft)
19.02.2019 03:40 -3,7 C -4,5 C 1,7 C -4,6 C 82 % 1020,7 hPa 0,0 l/m 0,0 km/h (0 Bft) W-SW 247 -6,3 C -3,7 C 0,0 km/h (0 Bft)
19.02.2019 03:38 -3,7 C -4,3 C 1,7 C -4,6 C 82 % 1020,7 hPa 0,0 l/m 0,0 km/h (0 Bft) W-SW 247 -6,3 C -3,7 C 0,0 km/h (0 Bft)
19.02.2019 03:36 -3,7 C -4,5 C 1,7 C -4,6 C 82 % 1020,7 hPa 0,0 l/m 0,0 km/h (0 Bft) W-SW 247 -6,3 C -3,7 C 0,0 km/h (0 Bft)
19.02.2019 03:34 -3,7 C -4,5 C 1,7 C -4,6 C 82 % 1020,7 hPa 0,0 l/m 0,0 km/h (0 Bft) W-SW 247 -6,3 C -3,7 C 0,0 km/h (0 Bft)
19.02.2019 03:32 -3,7 C -4,8 C 1,7 C -4,6 C 82 % 1020,7 hPa 0,0 l/m 0,0 km/h (0 Bft) W-SW 247 -6,3 C -3,7 C 0,0 km/h (0 Bft)
19.02.2019 03:30 -3,7 C -4,8 C 1,7 C -4,5 C 82 % 1020,7 hPa 0,0 l/m 0,0 km/h (0 Bft) W-SW 247 -6,3 C -3,7 C 0,0 km/h (0 Bft)
19.02.2019 03:28 -3,7 C -4,6 C 1,7 C -4,6 C 82 % 1020,7 hPa 0,0 l/m 0,2 km/h (0 Bft) W-SW 247 -6,3 C -3,7 C 0,0 km/h (0 Bft)
19.02.2019 03:26 -3,7 C -4,9 C 1,7 C -4,6 C 82 % 1020,5 hPa 0,0 l/m 0,2 km/h (0 Bft) W-SW 247 -6,3 C -3,7 C 0,0 km/h (0 Bft)
19.02.2019 03:24 -3,7 C -4,9 C 1,7 C -4,6 C 82 % 1020,5 hPa 0,0 l/m 0,2 km/h (0 Bft) W-SW 247 -6,3 C -3,7 C 0,0 km/h (0 Bft)
19.02.2019 03:22 -3,8 C -4,9 C 1,7 C -4,6 C 82 % 1020,5 hPa 0,0 l/m 0,2 km/h (0 Bft) W-SW 247 -6,4 C -3,8 C 0,0 km/h (0 Bft)
19.02.2019 03:20 -3,8 C -4,9 C 1,7 C -4,5 C 82 % 1020,5 hPa 0,0 l/m 0,2 km/h (0 Bft) W-SW 247 -6,4 C -3,8 C 2,9 km/h (1 Bft)
19.02.2019 03:18 -3,7 C -5,0 C 1,7 C -4,5 C 82 % 1020,5 hPa 0,0 l/m 0,0 km/h (0 Bft) W-SW 247 -6,3 C -3,7 C 0,0 km/h (0 Bft)
19.02.2019 03:16 -3,7 C -4,9 C 1,7 C -4,5 C 82 % 1020,5 hPa 0,0 l/m 0,0 km/h (0 Bft) W-SW 247 -6,3 C -3,7 C 0,0 km/h (0 Bft)
19.02.2019 03:14 -3,7 C -5,0 C 1,7 C -4,5 C 82 % 1020,5 hPa 0,0 l/m 0,0 km/h (0 Bft) W-SW 247 -6,3 C -3,7 C 0,0 km/h (0 Bft)
19.02.2019 03:12 -3,7 C -4,6 C 1,7 C -4,5 C 82 % 1020,5 hPa 0,0 l/m 0,0 km/h (0 Bft) W-SW 247 -6,3 C -3,7 C 0,0 km/h (0 Bft)
19.02.2019 03:10 -3,7 C -4,8 C 1,7 C -4,5 C 82 % 1020,5 hPa 0,0 l/m 0,0 km/h (0 Bft) W-SW 247 -6,3 C -3,7 C 0,0 km/h (0 Bft)
19.02.2019 03:08 -3,7 C -5,2 C 1,7 C -4,5 C 82 % 1020,5 hPa 0,0 l/m 0,0 km/h (0 Bft) W-SW 247 -6,3 C -3,7 C 0,0 km/h (0 Bft)
19.02.2019 03:06 -3,7 C -4,7 C 1,7 C -4,5 C 82 % 1020,8 hPa 0,0 l/m 0,0 km/h (0 Bft) W-SW 247 -6,3 C -3,7 C 0,0 km/h (0 Bft)
19.02.2019 03:04 -3,6 C -4,7 C 1,7 C -4,5 C 82 % 1020,8 hPa 0,0 l/m 0,0 km/h (0 Bft) W-SW 247 -6,2 C -3,6 C 0,0 km/h (0 Bft)
19.02.2019 03:02 -3,6 C -4,7 C 1,7 C -4,5 C 82 % 1020,8 hPa 0,0 l/m 0,0 km/h (0 Bft) W-SW 247 -6,2 C -3,6 C 0,0 km/h (0 Bft)
19.02.2019 03:00 -3,6 C -4,9 C 1,7 C -4,5 C 82 % 1020,8 hPa 0,0 l/m 0,0 km/h (0 Bft) W-SW 247 -6,2 C -3,6 C 0,0 km/h (0 Bft)
19.02.2019 02:58 -3,6 C -4,8 C 1,9 C -4,5 C 82 % 1020,8 hPa 0,0 l/m 0,0 km/h (0 Bft) W-SW 247 -6,2 C -3,6 C 0,0 km/h (0 Bft)
19.02.2019 02:56 -3,6 C -4,9 C 1,9 C -4,4 C 82 % 1020,8 hPa 0,0 l/m 0,0 km/h (0 Bft) W-SW 247 -6,2 C -3,6 C 0,0 km/h (0 Bft)
19.02.2019 02:54 -3,6 C -4,8 C 1,9 C -4,4 C 82 % 1020,8 hPa 0,0 l/m 0,0 km/h (0 Bft) W-SW 247 -6,2 C -3,6 C 0,0 km/h (0 Bft)
19.02.2019 02:52 -3,6 C -4,8 C 1,9 C -4,4 C 82 % 1020,8 hPa 0,0 l/m 0,0 km/h (0 Bft) W-SW 247 -6,2 C -3,6 C 0,0 km/h (0 Bft)
19.02.2019 02:50 -3,6 C -4,5 C 1,9 C -4,4 C 82 % 1020,8 hPa 0,0 l/m 0,0 km/h (0 Bft) W-SW 247 -6,2 C -3,6 C 0,0 km/h (0 Bft)
19.02.2019 02:48 -3,6 C -4,7 C 1,9 C -4,4 C 82 % 1020,8 hPa 0,0 l/m 0,0 km/h (0 Bft) W-SW 247 -6,2 C -3,6 C 0,0 km/h (0 Bft)
19.02.2019 02:46 -3,4 C -4,7 C 1,9 C -4,4 C 82 % 1020,6 hPa 0,0 l/m 0,0 km/h (0 Bft) W-SW 247 -6,0 C -3,4 C 0,0 km/h (0 Bft)
19.02.2019 02:44 -3,4 C -4,5 C 1,9 C -4,4 C 82 % 1020,6 hPa 0,0 l/m 0,0 km/h (0 Bft) W-SW 247 -6,0 C -3,4 C 0,0 km/h (0 Bft)
19.02.2019 02:42 -3,4 C -4,5 C 1,9 C -4,3 C 82 % 1020,6 hPa 0,0 l/m 0,0 km/h (0 Bft) W-SW 247 -6,0 C -3,4 C 0,0 km/h (0 Bft)
19.02.2019 02:40 -3,4 C -4,5 C 1,9 C -4,3 C 82 % 1020,6 hPa 0,0 l/m 0,0 km/h (0 Bft) W-SW 247 -6,0 C -3,4 C 0,0 km/h (0 Bft)
19.02.2019 02:38 -3,6 C -4,5 C 1,9 C -4,3 C 82 % 1020,6 hPa 0,0 l/m 0,0 km/h (0 Bft) W-SW 247 -6,2 C -3,6 C 0,0 km/h (0 Bft)
19.02.2019 02:36 -3,6 C -4,2 C 1,9 C -4,3 C 82 % 1020,6 hPa 0,0 l/m 0,0 km/h (0 Bft) W-SW 247 -6,2 C -3,6 C 0,0 km/h (0 Bft)
19.02.2019 02:34 -3,6 C -4,5 C 1,9 C -4,3 C 82 % 1020,6 hPa 0,0 l/m 0,0 km/h (0 Bft) W-SW 247 -6,2 C -3,6 C 0,0 km/h (0 Bft)
19.02.2019 02:32 -3,5 C -4,5 C 1,9 C -4,2 C 82 % 1020,6 hPa 0,0 l/m 0,0 km/h (0 Bft) W-SW 247 -6,1 C -3,5 C 0,0 km/h (0 Bft)
19.02.2019 02:30 -3,4 C -4,2 C 1,9 C -4,2 C 82 % 1020,6 hPa 0,0 l/m 0,0 km/h (0 Bft) W-SW 247 -6,0 C -3,4 C 0,0 km/h (0 Bft)
19.02.2019 02:28 -3,4 C -4,5 C 1,9 C -4,2 C 82 % 1020,6 hPa 0,0 l/m 0,0 km/h (0 Bft) W-SW 247 -6,0 C -3,4 C 0,0 km/h (0 Bft)
19.02.2019 02:26 -3,5 C -4,5 C 1,9 C -4,1 C 82 % 1020,6 hPa 0,0 l/m 0,0 km/h (0 Bft) W-SW 247 -6,1 C -3,5 C 0,0 km/h (0 Bft)
19.02.2019 02:24 -3,5 C -4,5 C 1,9 C -4,2 C 82 % 1020,6 hPa 0,0 l/m 0,0 km/h (0 Bft) W-SW 247 -6,1 C -3,5 C 0,0 km/h (0 Bft)
19.02.2019 02:22 -3,4 C -4,4 C 1,9 C -4,2 C 82 % 1020,6 hPa 0,0 l/m 0,0 km/h (0 Bft) W-SW 247 -6,0 C -3,4 C 0,0 km/h (0 Bft)
19.02.2019 02:20 -3,5 C -4,4 C 1,9 C -4,2 C 82 % 1020,6 hPa 0,0 l/m 0,0 km/h (0 Bft) W-SW 247 -6,1 C -3,5 C 0,0 km/h (0 Bft)
19.02.2019 02:18 -3,5 C -4,7 C 1,9 C -4,2 C 82 % 1020,6 hPa 0,0 l/m 0,0 km/h (0 Bft) W-SW 247 -6,1 C -3,5 C 0,0 km/h (0 Bft)
19.02.2019 02:16 -3,5 C -4,7 C 1,9 C -4,1 C 82 % 1020,6 hPa 0,0 l/m 0,0 km/h (0 Bft) W-SW 247 -6,1 C -3,5 C 0,0 km/h (0 Bft)
19.02.2019 02:14 -3,5 C -4,8 C 1,9 C -4,1 C 82 % 1020,6 hPa 0,0 l/m 0,0 km/h (0 Bft) W-SW 247 -6,1 C -3,5 C 0,0 km/h (0 Bft)
19.02.2019 02:12 -3,5 C -4,7 C 1,9 C -4,1 C 82 % 1020,6 hPa 0,0 l/m 0,0 km/h (0 Bft) W-SW 247 -6,1 C -3,5 C 0,0 km/h (0 Bft)
19.02.2019 02:10 -3,5 C -4,5 C 1,9 C -4,1 C 82 % 1020,6 hPa 0,0 l/m 0,0 km/h (0 Bft) W-SW 247 -6,1 C -3,5 C 0,0 km/h (0 Bft)
19.02.2019 02:08 -3,3 C -4,5 C 1,9 C -4,1 C 82 % 1020,6 hPa 0,0 l/m 0,0 km/h (0 Bft) W-NW 292 -5,9 C -3,3 C 0,0 km/h (0 Bft)
19.02.2019 02:06 -3,3 C -4,5 C 1,9 C -4,0 C 82 % 1020,7 hPa 0,0 l/m 0,0 km/h (0 Bft) W 270 -5,9 C -3,3 C 0,0 km/h (0 Bft)
19.02.2019 02:04 -3,3 C -4,4 C 1,9 C -4,0 C 82 % 1020,7 hPa 0,0 l/m 0,0 km/h (0 Bft) W-SW 247 -5,9 C -3,3 C 0,0 km/h (0 Bft)
19.02.2019 02:02 -3,3 C -4,0 C 1,9 C -4,0 C 82 % 1020,7 hPa 0,0 l/m 0,0 km/h (0 Bft) N-NW 337 -5,9 C -3,3 C 0,0 km/h (0 Bft)
19.02.2019 02:00 -3,3 C -4,1 C 1,9 C -3,9 C 82 % 1020,7 hPa 0,0 l/m 0,0 km/h (0 Bft) W 270 -5,9 C -3,3 C 0,0 km/h (0 Bft)
19.02.2019 01:58 -3,2 C -4,1 C 1,9 C -3,9 C 82 % 1020,7 hPa 0,0 l/m 0,0 km/h (0 Bft) N-NW 337 -5,8 C -3,2 C 0,0 km/h (0 Bft)
19.02.2019 01:56 -3,2 C -4,1 C 1,9 C -4,0 C 82 % 1020,7 hPa 0,0 l/m 0,0 km/h (0 Bft) N-NW 337 -5,8 C -3,2 C 0,0 km/h (0 Bft)
19.02.2019 01:54 -3,2 C -4,1 C 1,9 C -4,0 C 82 % 1020,7 hPa 0,0 l/m 0,0 km/h (0 Bft) W-NW 292 -5,8 C -3,2 C 0,0 km/h (0 Bft)
19.02.2019 01:52 -3,2 C -4,4 C 1,9 C -4,0 C 82 % 1020,7 hPa 0,0 l/m 0,0 km/h (0 Bft) N-NW 337 -5,8 C -3,2 C 0,0 km/h (0 Bft)
19.02.2019 01:50 -3,2 C -4,5 C 1,9 C -4,0 C 82 % 1020,7 hPa 0,0 l/m 0,0 km/h (0 Bft) S 180 -5,8 C -3,2 C 0,0 km/h (0 Bft)
19.02.2019 01:48 -3,2 C -4,5 C 1,9 C -3,9 C 82 % 1020,7 hPa 0,0 l/m 0,0 km/h (0 Bft) O-NO 67 -5,8 C -3,2 C 0,0 km/h (0 Bft)
19.02.2019 01:46 -3,2 C -4,4 C 1,9 C -3,9 C 82 % 1020,6 hPa 0,0 l/m 0,0 km/h (0 Bft) NO 45 -5,8 C -3,2 C 0,0 km/h (0 Bft)
19.02.2019 01:44 -3,2 C -4,4 C 1,9 C -3,9 C 82 % 1020,6 hPa 0,0 l/m 0,2 km/h (0 Bft) SO 135 -5,8 C -3,2 C 0,0 km/h (0 Bft)
19.02.2019 01:42 -3,1 C -4,4 C 2,0 C -3,9 C 82 % 1020,6 hPa 0,0 l/m 0,2 km/h (0 Bft) W-SW 247 -5,7 C -3,1 C 0,0 km/h (0 Bft)
19.02.2019 01:40 -3,1 C -4,1 C 1,9 C -3,8 C 82 % 1020,6 hPa 0,0 l/m 0,3 km/h (0 Bft) S 180 -5,7 C -3,1 C 0,0 km/h (0 Bft)
19.02.2019 01:38 -3,1 C -4,4 C 1,9 C -3,8 C 82 % 1020,6 hPa 0,0 l/m 0,6 km/h (0 Bft) S-SO 157 -5,7 C -3,1 C 0,0 km/h (0 Bft)
19.02.2019 01:36 -3,1 C -4,2 C 1,9 C -3,8 C 82 % 1020,6 hPa 0,0 l/m 0,6 km/h (0 Bft) NW 315 -5,7 C -3,1 C 0,0 km/h (0 Bft)
19.02.2019 01:34 -3,1 C -4,1 C 1,9 C -3,7 C 82 % 1020,6 hPa 0,0 l/m 0,6 km/h (0 Bft) W-NW 292 -5,7 C -3,1 C 3,3 km/h (1 Bft)
19.02.2019 01:32 -3,1 C -4,1 C 1,9 C -3,7 C 82 % 1020,6 hPa 0,0 l/m 0,5 km/h (0 Bft) W-SW 247 -5,7 C -3,1 C 0,0 km/h (0 Bft)
19.02.2019 01:30 -3,1 C -4,2 C 1,9 C -3,7 C 82 % 1020,6 hPa 0,0 l/m 0,5 km/h (0 Bft) NW 315 -5,7 C -3,1 C 2,7 km/h (1 Bft)
19.02.2019 01:28 -3,1 C -4,2 C 1,9 C -3,8 C 82 % 1020,6 hPa 0,0 l/m 0,2 km/h (0 Bft) W 270 -5,7 C -3,1 C 2,9 km/h (1 Bft)
19.02.2019 01:26 -3,1 C -4,1 C 1,9 C -3,7 C 82 % 1020,8 hPa 0,0 l/m 0,2 km/h (0 Bft) O-NO 67 -5,7 C -3,1 C 0,0 km/h (0 Bft)
19.02.2019 01:24 -3,1 C -3,7 C 1,9 C -3,7 C 82 % 1020,8 hPa 0,0 l/m 0,2 km/h (0 Bft) S-SO 157 -5,7 C -3,1 C 0,0 km/h (0 Bft)
19.02.2019 01:22 -3,1 C -3,7 C 1,9 C -3,7 C 82 % 1020,8 hPa 0,0 l/m 0,2 km/h (0 Bft) NO 45 -5,7 C -3,1 C 0,0 km/h (0 Bft)
19.02.2019 01:20 -3,1 C -4,0 C 1,9 C -3,7 C 82 % 1020,8 hPa 0,0 l/m 0,2 km/h (0 Bft) O-NO 67 -5,7 C -3,1 C 0,0 km/h (0 Bft)
19.02.2019 01:18 -3,1 C -4,1 C 1,9 C -3,7 C 82 % 1020,8 hPa 0,0 l/m 0,2 km/h (0 Bft) NW 315 -5,7 C -3,1 C 0,0 km/h (0 Bft)
19.02.2019 01:16 -3,1 C -4,1 C 1,9 C -3,7 C 82 % 1020,8 hPa 0,0 l/m 0,0 km/h (0 Bft) NW 315 -5,7 C -3,1 C 0,0 km/h (0 Bft)
19.02.2019 01:14 -2,9 C -4,2 C 1,9 C -3,7 C 82 % 1020,8 hPa 0,0 l/m 0,0 km/h (0 Bft) W-SW 247 -5,5 C -2,9 C 0,0 km/h (0 Bft)
19.02.2019 01:12 -2,9 C -4,1 C 1,9 C -3,7 C 82 % 1020,8 hPa 0,0 l/m 0,0 km/h (0 Bft) W 270 -5,5 C -2,9 C 0,0 km/h (0 Bft)
19.02.2019 01:10 -2,9 C -4,1 C 1,9 C -3,7 C 82 % 1020,8 hPa 0,0 l/m 0,0 km/h (0 Bft) W-SW 247 -5,5 C -2,9 C 0,0 km/h (0 Bft)
19.02.2019 01:08 -2,9 C -4,1 C 1,9 C -3,6 C 82 % 1020,8 hPa 0,0 l/m 0,0 km/h (0 Bft) SW 225 -5,5 C -2,9 C 0,0 km/h (0 Bft)
19.02.2019 01:06 -2,9 C -4,4 C 1,9 C -3,6 C 82 % 1020,7 hPa 0,0 l/m 0,0 km/h (0 Bft) SW 225 -5,5 C -2,9 C 0,0 km/h (0 Bft)
19.02.2019 01:04 -2,9 C -4,2 C 1,9 C -3,7 C 82 % 1020,7 hPa 0,0 l/m 0,0 km/h (0 Bft) W-NW 292 -5,5 C -2,9 C 0,0 km/h (0 Bft)
19.02.2019 01:02 -2,8 C -4,2 C 1,9 C -3,6 C 82 % 1020,7 hPa 0,0 l/m 0,2 km/h (0 Bft) W 270 -5,4 C -2,8 C 0,0 km/h (0 Bft)
19.02.2019 01:00 -2,8 C -3,8 C 1,9 C -3,6 C 82 % 1020,7 hPa 0,0 l/m 0,2 km/h (0 Bft) W-SW 247 -5,4 C -2,8 C 0,0 km/h (0 Bft)
19.02.2019 00:58 -2,8 C -4,0 C 1,9 C -3,5 C 82 % 1020,7 hPa 0,0 l/m 0,3 km/h (0 Bft) S 180 -5,4 C -2,8 C 0,0 km/h (0 Bft)
19.02.2019 00:56 -2,8 C -4,1 C 1,9 C -3,5 C 82 % 1020,7 hPa 0,0 l/m 0,3 km/h (0 Bft) W-SW 247 -5,4 C -2,8 C 2,3 km/h (1 Bft)
19.02.2019 00:54 -2,8 C -3,6 C 1,9 C -3,4 C 82 % 1020,7 hPa 0,0 l/m 0,3 km/h (0 Bft) SW 225 -5,4 C -2,8 C 0,0 km/h (0 Bft)
19.02.2019 00:52 -2,8 C -3,6 C 1,9 C -3,4 C 82 % 1020,7 hPa 0,0 l/m 0,3 km/h (0 Bft) NW 315 -5,4 C -2,8 C 2,3 km/h (1 Bft)
19.02.2019 00:50 -2,8 C -3,8 C 1,9 C -3,4 C 82 % 1020,7 hPa 0,0 l/m 0,2 km/h (0 Bft) N-NW 337 -5,4 C -2,8 C 0,0 km/h (0 Bft)
19.02.2019 00:48 -2,8 C -3,7 C 1,9 C -3,5 C 82 % 1020,7 hPa 0,0 l/m 0,2 km/h (0 Bft) W-NW 292 -5,4 C -2,8 C 1,9 km/h (1 Bft)
19.02.2019 00:46 -2,8 C -3,6 C 1,9 C -3,5 C 82 % 1020,2 hPa 0,0 l/m 0,0 km/h (0 Bft) NW 315 -5,4 C -2,8 C 0,0 km/h (0 Bft)
19.02.2019 00:44 -2,8 C -3,8 C 1,9 C -3,5 C 82 % 1020,2 hPa 0,0 l/m 0,0 km/h (0 Bft) N-NO 22 -5,4 C -2,8 C 0,0 km/h (0 Bft)
19.02.2019 00:42 -2,8 C -3,4 C 1,9 C -3,5 C 82 % 1020,2 hPa 0,0 l/m 0,0 km/h (0 Bft) W-NW 292 -5,4 C -2,8 C 0,0 km/h (0 Bft)
19.02.2019 00:40 -2,8 C -3,4 C 1,9 C -3,4 C 82 % 1020,2 hPa 0,0 l/m 0,0 km/h (0 Bft) W-NW 292 -5,4 C -2,8 C 0,0 km/h (0 Bft)
19.02.2019 00:38 -2,8 C -3,4 C 1,9 C -3,4 C 82 % 1020,2 hPa 0,0 l/m 0,0 km/h (0 Bft) N-NW 337 -5,4 C -2,8 C 0,0 km/h (0 Bft)
19.02.2019 00:36 -2,8 C -3,8 C 1,9 C -3,5 C 82 % 1020,2 hPa 0,0 l/m 0,0 km/h (0 Bft) N-NO 22 -5,4 C -2,8 C 0,0 km/h (0 Bft)
19.02.2019 00:34 -2,7 C -4,0 C 1,9 C -3,4 C 82 % 1020,2 hPa 0,0 l/m 0,0 km/h (0 Bft) S 180 -5,3 C -2,7 C 0,0 km/h (0 Bft)
19.02.2019 00:32 -2,7 C -4,0 C 1,9 C -3,4 C 82 % 1020,2 hPa 0,0 l/m 0,0 km/h (0 Bft) S 180 -5,3 C -2,7 C 0,0 km/h (0 Bft)
19.02.2019 00:30 -2,7 C -4,0 C 1,9 C -3,4 C 82 % 1020,2 hPa 0,0 l/m 0,0 km/h (0 Bft) S 180 -5,3 C -2,7 C 0,0 km/h (0 Bft)
19.02.2019 00:28 -2,7 C -4,1 C 2,1 C -3,3 C 82 % 1020,2 hPa 0,0 l/m 0,0 km/h (0 Bft) S 180 -5,3 C -2,7 C 0,0 km/h (0 Bft)
19.02.2019 00:26 -2,7 C -3,8 C 2,1 C -3,3 C 82 % 1020,6 hPa 0,0 l/m 0,2 km/h (0 Bft) S 180 -5,3 C -2,7 C 0,0 km/h (0 Bft)
19.02.2019 00:24 -2,7 C -3,6 C 2,1 C -3,3 C 82 % 1020,6 hPa 0,0 l/m 0,3 km/h (0 Bft) W-SW 247 -5,3 C -2,7 C 3,1 km/h (1 Bft)
19.02.2019 00:22 -2,5 C -3,6 C 2,1 C -3,2 C 82 % 1020,6 hPa 0,0 l/m 0,3 km/h (0 Bft) W 270 -5,1 C -2,5 C 0,0 km/h (0 Bft)
19.02.2019 00:20 -2,5 C -3,4 C 2,1 C -3,2 C 82 % 1020,6 hPa 0,0 l/m 0,3 km/h (0 Bft) N-NO 22 -5,1 C -2,5 C 0,0 km/h (0 Bft)
19.02.2019 00:18 -2,5 C -3,3 C 2,1 C -3,2 C 82 % 1020,6 hPa 0,0 l/m 0,3 km/h (0 Bft) NW 315 -5,1 C -2,5 C 0,0 km/h (0 Bft)
19.02.2019 00:16 -2,5 C -3,4 C 2,1 C -3,2 C 82 % 1020,6 hPa 0,0 l/m 0,6 km/h (0 Bft) W 270 -5,1 C -2,5 C 1,9 km/h (1 Bft)
19.02.2019 00:14 -2,5 C -3,4 C 2,1 C -3,2 C 82 % 1020,6 hPa 0,0 l/m 0,3 km/h (0 Bft) W-NW 292 -5,1 C -2,5 C 0,0 km/h (0 Bft)
19.02.2019 00:12 -2,5 C -3,0 C 2,1 C -3,2 C 82 % 1020,6 hPa 0,0 l/m 0,3 km/h (0 Bft) S-SO 157 -5,1 C -2,5 C 0,0 km/h (0 Bft)
19.02.2019 00:10 -2,5 C -3,0 C 2,1 C -3,2 C 82 % 1020,6 hPa 0,0 l/m 0,3 km/h (0 Bft) S-SO 157 -5,1 C -2,5 C 0,0 km/h (0 Bft)
19.02.2019 00:08 -2,5 C -3,4 C 2,1 C -3,1 C 82 % 1020,6 hPa 0,0 l/m 0,3 km/h (0 Bft) S-SW 202 -5,1 C -2,5 C 2,1 km/h (1 Bft)
19.02.2019 00:06 -2,4 C -3,4 C 2,1 C -3,2 C 82 % 1020,6 hPa 0,0 l/m 0,2 km/h (0 Bft) NO 45 -5,0 C -2,4 C 2,3 km/h (1 Bft)
19.02.2019 00:04 -2,4 C -3,8 C 2,1 C -3,1 C 82 % 1020,6 hPa 0,0 l/m 0,0 km/h (0 Bft) NW 315 -5,0 C -2,4 C 0,0 km/h (0 Bft)
19.02.2019 00:02 -2,4 C -3,8 C 2,1 C -3,1 C 82 % 1020,6 hPa 0,0 l/m 0,0 km/h (0 Bft) NW 315 -5,0 C -2,4 C 0,0 km/h (0 Bft)
19.02.2019 00:00 -2,4 C -3,6 C 2,1 C -3,1 C 82 % 1020,6 hPa 0,0 l/m 0,0 km/h (0 Bft) NW 315 -5,0 C -2,4 C 0,0 km/h (0 Bft)
_ Min-Zeit 04:30 03:08 03:00 04:36 00:00 00:28 - 00:00 - - 04:30 04:30 00:00
Minimum _ -4,2 C -5,2 C 1,7 C -5,0 C 82 % 1020,2 hPa - 0,0 km/h (0 Bft) - - -6,8 C -4,2 C 0,0 km/h (0 Bft)
_ Max-Zeit 00:00 00:10 00:00 00:00 04:08 04:28 00:00 04:34 - - 00:00 00:00 03:48
Maximum _ -2,4 C -3,0 C 2,1 C -3,1 C 83 % 1021,2 hPa 0,0 l/m 0,8 km/h
W-SW (0 Bft)
- - -5,0 C -2,4 C 4,6 km/h
W-SW (1 Bft)
Durchschnitt _ -3,3 C -4,3 C 1,9 C -4,1 C 82 % 1020,6 hPa #0,0 l/m 0,2 km/h (0 Bft) N - -5,9 C -3,3 C 0,3 km/h (0 Bft)